[[{"header":{"parameterUnit":"m.s-1","parameterCategory":1,"la1":30.2991,"la2":30.254,"lo1":-89.0895,"lo2":-89.0444,"dy":0.0017,"dx":0.0017,"nx":28,"ny":28,"refTime":"2025-12-05T03:00:00:Z","depth":0,"parameterNumber":2,"parameterNumberName":"U-component_of_WINDS"},"data":[0,0,0,0,0,0,0,0,0,0,0,0,0,0,0,0,0,0,0,0,0,0,0,0,0,0,0,0,0,0,0,0,0,0,0,0,0,0,0,0,0,0,0,0,0,0,0,0,0,0,0,0,0,0,0,0,0,0,-1.2066,-1.2065,0,-1.2056,-1.2056,-1.2056,-1.2029,-1.2028,-1.2027,-1.2027,-1.2018,-1.2019,-1.2019,0,0,0,0,0,0,0,0,0,0,0,0,0,-1.2062,-1.2062,-1.2066,-1.2065,-1.2065,-1.2056,-1.2056,-1.2056,-1.2029,-1.2028,-1.2027,-1.2027,-1.2018,-1.2019,-1.2019,0,0,0,0,0,0,0,0,0,0,0,0,0,-1.2059,-1.2062,-1.2066,-1.2051,-1.2049,-1.2056,-1.2056,-1.2056,-1.2029,-1.2028,-1.2027,-1.2026,-1.2018,-1.2019,-1.2019,-1.204,0,0,-1.2021,-1.2021,0,0,0,0,0,0,0,0,-1.2059,-1.2059,-1.2053,-1.2052,-1.205,-1.2043,-1.2051,-1.205,-1.2029,-1.2037,-1.2027,-1.2026,-1.2027,-1.2027,-1.2027,-1.204,-1.2039,-1.2021,-1.2021,-1.2021,-1.2021,0,0,0,0,0,0,0,-1.206,-1.206,-1.2062,-1.2053,-1.2051,-1.2045,-1.2044,-1.2051,-1.2037,-1.2036,-1.2034,-1.2033,-1.2026,-1.2027,-1.2027,-1.2039,-1.2021,-1.2021,-1.2021,-1.2022,-1.2068,-1.2069,0,0,0,0,0,0,-1.2062,-1.206,-1.2062,-1.2061,-1.2053,-1.2046,-1.2044,-1.2046,-1.2037,-1.2035,-1.2034,-1.2032,-1.2026,-1.2026,-1.2026,-1.205,-1.2021,-1.2022,-1.2022,-1.2067,-1.2068,-1.2069,0,0,0,0,0,0,-1.2062,-1.2062,-1.2062,-1.206,-1.206,-1.2047,-1.2049,-1.2046,-1.2047,-1.2035,-1.2033,-1.2037,-1.2026,-1.2026,-1.2037,-1.2049,-1.2022,-1.2022,-1.2066,-1.2068,-1.2069,-1.2098,0,0,0,0,0,0,-1.2062,-1.2062,-1.207,-1.2061,-1.206,-1.2073,-1.205,-1.2047,-1.2047,-1.2045,-1.2037,-1.2035,-1.2025,-1.2036,-1.2037,-1.205,-1.2023,-1.2065,-1.2067,-1.2068,-1.2096,-1.21,-1.2104,0,0,0,0,0,-1.2062,-1.2079,-1.207,-1.2071,-1.2069,-1.2073,-1.2073,-1.206,-1.2048,-1.2056,-1.2049,-1.2036,-1.2048,-1.2037,-1.2038,-1.2051,-1.2064,-1.2066,-1.2068,-1.2094,-1.2099,-1.2104,0,0,0,0,0,0,-1.209,-1.2077,-1.2068,-1.2082,-1.2079,-1.2069,-1.2078,-1.2066,-1.2067,-1.2065,-1.2049,-1.2048,-1.2061,-1.2057,-1.2046,-1.2071,-1.2054,-1.2056,-1.2073,-1.2078,-1.2082,-1.2082,-1.2023,0,0,0,0,0,-1.2098,-1.2102,-1.2091,-1.2105,-1.2103,-1.2091,-1.2093,-1.2083,-1.2079,-1.2078,-1.2072,-1.2069,-1.2072,-1.2075,-1.2077,-1.2095,-1.2093,-1.2104,-1.2108,-1.2112,-1.2114,-1.2123,-1.2128,-1.2076,-1.2076,-1.2076,0,0,-1.2114,-1.2108,-1.2111,-1.211,-1.2107,-1.2112,-1.209,-1.2097,-1.21,-1.2079,-1.2089,-1.2084,-1.2081,-1.2095,-1.2101,-1.2092,-1.2128,-1.2114,-1.2117,-1.2118,-1.2126,-1.2131,-1.2135,-1.2078,-1.2078,-1.2077,0,0,-1.2147,-1.2142,-1.2153,-1.215,-1.2145,-1.2136,-1.2139,-1.2131,-1.2127,-1.2136,-1.212,-1.2125,-1.2131,-1.2129,-1.2129,-1.216,-1.2148,-1.2162,-1.2183,-1.2192,-1.2196,-1.22,-1.2211,-1.2215,-1.2164,-1.2164,-1.2164,0,-1.2168,-1.2174,-1.216,-1.2167,-1.2167,-1.2148,-1.2159,-1.2157,-1.2153,-1.2154,-1.2144,-1.2151,-1.2147,-1.2161,-1.2169,-1.2169,-1.2172,-1.2162,-1.2196,-1.22,-1.2203,-1.2214,-1.2218,-1.2166,-1.2166,-1.2165,-1.2165,0,-1.2201,-1.2206,-1.2215,-1.2211,-1.2212,-1.2222,-1.2209,-1.2212,-1.2203,-1.2196,-1.2206,-1.22,-1.2201,-1.2204,-1.2195,-1.2216,-1.2211,-1.2199,-1.2182,-1.221,-1.2219,-1.2223,-1.2168,-1.2168,-1.2167,-1.2167,0,0,-1.2251,-1.2239,-1.2242,-1.224,-1.2233,-1.2237,-1.2246,-1.2246,-1.2249,-1.2247,-1.2254,-1.226,-1.2249,-1.2248,-1.2239,-1.2247,-1.2273,-1.2234,-1.2234,-1.2241,-1.2296,-1.2305,-1.231,-1.2265,-1.2265,-1.2266,-1.2296,0,-1.2281,-1.2294,-1.2282,-1.2298,-1.2302,-1.2284,-1.2292,-1.2289,-1.2282,-1.2286,-1.2279,-1.2283,-1.2268,-1.2268,-1.2275,-1.2268,-1.2283,-1.2266,-1.2271,-1.2272,-1.2273,-1.2315,-1.2324,-1.2353,-1.23,-1.2301,-1.2301,0,-1.2318,-1.2318,-1.2334,-1.2326,-1.2327,-1.2334,-1.2334,-1.2337,-1.2333,-1.2328,-1.2328,-1.2316,-1.2325,-1.2308,-1.2319,-1.2307,-1.2309,-1.2306,-1.2307,-1.2307,-1.2288,-1.2316,-1.2362,-1.2367,-1.2307,-1.2307,-1.2306,0,-1.2353,-1.2356,-1.2366,-1.2365,-1.2356,-1.2362,-1.2358,-1.2353,-1.2354,-1.2354,-1.2355,-1.2356,-1.2356,-1.2358,-1.2347,-1.2335,-1.236,-1.2342,-1.2356,-1.2356,-1.2362,-1.2361,-1.2409,-1.2363,-1.2363,-1.2363,-1.2363,0,-1.2388,-1.2399,-1.2382,-1.2388,-1.24,-1.2385,-1.2398,-1.2392,-1.2388,-1.2393,-1.2378,-1.2384,-1.2369,-1.2373,-1.2365,-1.2375,-1.2376,-1.2372,-1.237,-1.2373,-1.2374,-1.2374,-1.2372,-1.2364,-1.2364,-1.2364,-1.2363,0,-1.2429,-1.2418,-1.2428,-1.2418,-1.2416,-1.2425,-1.2417,-1.2423,-1.2415,-1.2422,-1.2423,-1.2412,-1.2416,-1.2405,-1.2407,-1.2402,-1.2417,-1.2412,-1.2418,-1.2417,-1.2431,-1.243,-1.248,-1.2486,-1.2437,-1.2437,-1.2438,0,-1.2452,-1.246,-1.2451,-1.2453,-1.245,-1.2454,-1.2455,-1.2441,-1.2443,-1.2439,-1.2446,-1.2448,-1.2449,-1.2457,-1.2449,-1.2451,-1.2445,-1.2463,-1.2445,-1.2449,-1.2445,-1.2445,-1.2445,-1.2466,-1.2467,-1.2467,-1.2468,0,-1.2495,-1.2489,-1.249,-1.249,-1.2491,-1.2491,-1.2489,-1.2492,-1.2477,-1.248,-1.2484,-1.2485,-1.2487,-1.249,-1.249,-1.2487,-1.2475,-1.2473,-1.2476,-1.248,-1.2484,-1.2482,-1.2428,-1.2472,-1.2472,-1.2471,-1.2471,-1.2471,-1.2527,-1.2533,-1.2528,-1.253,-1.2527,-1.2526,-1.2531,-1.2524,-1.2526,-1.2527,-1.2519,-1.2524,-1.252,-1.2519,-1.2517,-1.2521,-1.2513,-1.2518,-1.2519,-1.2521,-1.2523,-1.2483,-1.2521,-1.2521,-1.2521,-1.2521,-1.2521,0,-1.2568,-1.2564,-1.2566,-1.2564,-1.2566,-1.2554,-1.2552,-1.2555,-1.2559,-1.2556,-1.2558,-1.2562,-1.2565,-1.2557,-1.2559,-1.2564,-1.2558,-1.2564,-1.2564,-1.2563,-1.253,-1.2527,-1.2569,-1.2569,-1.2569,-1.2569,-1.2569,-1.2569,-1.259,-1.26,-1.2593,-1.2601,-1.2597,-1.2601,-1.2601,-1.26,-1.2598,-1.2603,-1.2605,-1.2599,-1.2595,-1.2596,-1.2598,-1.2596,-1.2597,-1.2605,-1.2601,-1.257,-1.2566,-1.2561,-1.2558,-1.2606,-1.2606,-1.2634,-1.2634,-1.2634]},{"header":{"parameterUnit":"m.s-1","parameterCategory":1,"la1":30.2991,"la2":30.254,"lo1":-89.0895,"lo2":-89.0444,"dy":0.0017,"dx":0.0017,"nx":28,"ny":28,"refTime":"2025-12-05T03:00:00:Z","depth":0,"parameterNumber":3,"parameterNumberName":"V-component_of_WINDS"},"data":[0,0,0,0,0,0,0,0,0,0,0,0,0,0,0,0,0,0,0,0,0,0,0,0,0,0,0,0,0,0,0,0,0,0,0,0,0,0,0,0,0,0,0,0,0,0,0,0,0,0,0,0,0,0,0,0,0,0,-2.366,-2.3661,0,-2.3726,-2.3727,-2.3728,-2.3678,-2.3676,-2.3674,-2.3671,-2.3738,-2.3742,-2.3746,0,0,0,0,0,0,0,0,0,0,0,0,0,-2.3487,-2.3491,-2.366,-2.3661,-2.3661,-2.3726,-2.3727,-2.3728,-2.3678,-2.3676,-2.3673,-2.367,-2.3737,-2.3741,-2.3746,0,0,0,0,0,0,0,0,0,0,0,0,0,-2.3559,-2.3492,-2.366,-2.3644,-2.3644,-2.3726,-2.3727,-2.3728,-2.3679,-2.3676,-2.3672,-2.3669,-2.3735,-2.3741,-2.3747,-2.3847,0,0,-2.3764,-2.3767,0,0,0,0,0,0,0,0,-2.3555,-2.3565,-2.3646,-2.3646,-2.3645,-2.3691,-2.3691,-2.3768,-2.368,-2.3665,-2.3671,-2.3668,-2.3725,-2.3731,-2.3751,-2.385,-2.3853,-2.3765,-2.3768,-2.3771,-2.3772,0,0,0,0,0,0,0,-2.355,-2.3562,-2.3686,-2.3647,-2.3647,-2.3634,-2.364,-2.3705,-2.3713,-2.3666,-2.3663,-2.3672,-2.3724,-2.3746,-2.3752,-2.3854,-2.3764,-2.377,-2.3773,-2.3775,-2.404,-2.4043,0,0,0,0,0,0,-2.3547,-2.3558,-2.3684,-2.3688,-2.3591,-2.3639,-2.3647,-2.3679,-2.3712,-2.3714,-2.3674,-2.3669,-2.3737,-2.3745,-2.3754,-2.3875,-2.377,-2.3776,-2.3779,-2.4036,-2.4041,-2.4045,0,0,0,0,0,0,-2.3543,-2.3559,-2.3681,-2.3622,-2.3637,-2.3646,-2.3683,-2.3682,-2.3704,-2.3718,-2.3719,-2.3695,-2.3735,-2.3746,-2.3825,-2.3877,-2.3778,-2.3784,-2.4032,-2.4038,-2.4043,-2.4117,0,0,0,0,0,0,-2.3539,-2.3558,-2.3596,-2.3624,-2.364,-2.3752,-2.3686,-2.3686,-2.3714,-2.3708,-2.3738,-2.3739,-2.3733,-2.3816,-2.383,-2.3883,-2.3788,-2.4027,-2.4034,-2.4041,-2.411,-2.4124,-2.4137,0,0,0,0,0,-2.3533,-2.3614,-2.3599,-2.3614,-2.3689,-2.3755,-2.3764,-2.3756,-2.3718,-2.3757,-2.3766,-2.3738,-2.3868,-2.3825,-2.384,-2.3895,-2.4024,-2.4033,-2.404,-2.4104,-2.4121,-2.4136,0,0,0,0,0,0,-2.3592,-2.3618,-2.3601,-2.3694,-2.3722,-2.3746,-2.3795,-2.3775,-2.3814,-2.3807,-2.3794,-2.3802,-2.3884,-2.3897,-2.3848,-2.3994,-2.394,-2.3952,-2.3983,-2.4,-2.4013,-2.4009,-2.3793,0,0,0,0,0,-2.3616,-2.3668,-2.3687,-2.3767,-2.3782,-2.3786,-2.3814,-2.3806,-2.3835,-2.3847,-2.3861,-2.389,-2.3938,-2.3969,-2.4013,-2.4111,-2.4117,-2.4156,-2.4169,-2.418,-2.4191,-2.4244,-2.4262,-2.4071,-2.4071,-2.4071,0,0,-2.3667,-2.3687,-2.372,-2.378,-2.3801,-2.3854,-2.3797,-2.3856,-2.3895,-2.3855,-2.3931,-2.3943,-2.3974,-2.4063,-2.4103,-2.4076,-2.4244,-2.419,-2.4199,-2.4204,-2.4254,-2.4272,-2.4288,-2.4077,-2.4076,-2.4075,0,0,-2.3786,-2.3806,-2.3875,-2.3898,-2.3931,-2.3933,-2.395,-2.3977,-2.3983,-2.4059,-2.403,-2.4076,-2.4158,-2.4182,-2.4205,-2.4332,-2.4309,-2.4347,-2.4417,-2.4469,-2.4484,-2.4497,-2.4544,-2.4561,-2.4357,-2.4357,-2.4357,0,-2.3844,-2.3924,-2.3913,-2.3975,-2.4002,-2.3969,-2.4039,-2.4061,-2.4107,-2.4126,-2.4095,-2.4197,-2.4216,-2.431,-2.4342,-2.4361,-2.438,-2.4344,-2.4483,-2.4496,-2.4508,-2.4553,-2.457,-2.4362,-2.4361,-2.4361,-2.436,0,-2.3995,-2.405,-2.4102,-2.4148,-2.4181,-2.4246,-2.4245,-2.4279,-2.4267,-2.4273,-2.435,-2.4371,-2.4419,-2.444,-2.4429,-2.4533,-2.4516,-2.4484,-2.443,-2.4531,-2.4573,-2.459,-2.4368,-2.4367,-2.4365,-2.4364,0,0,-2.4155,-2.4194,-2.4213,-2.4234,-2.4268,-2.431,-2.4374,-2.4422,-2.4452,-2.4484,-2.4537,-2.4607,-2.4578,-2.4604,-2.4594,-2.464,-2.4741,-2.4602,-2.4603,-2.4629,-2.4858,-2.4884,-2.4904,-2.4725,-2.4728,-2.473,-2.4856,0,-2.4277,-2.4389,-2.4381,-2.4486,-2.4538,-2.4506,-2.4561,-2.4588,-2.4594,-2.4638,-2.4644,-2.4695,-2.4652,-2.4667,-2.4711,-2.472,-2.4787,-2.471,-2.4775,-2.4777,-2.477,-2.4925,-2.4952,-2.507,-2.4872,-2.4875,-2.4877,0,-2.4435,-2.4473,-2.4584,-2.4611,-2.4632,-2.4682,-2.4725,-2.4768,-2.4797,-2.4798,-2.4827,-2.481,-2.4874,-2.4817,-2.4905,-2.4853,-2.4878,-2.4886,-2.4891,-2.4898,-2.4835,-2.4938,-2.5108,-2.5126,-2.4902,-2.49,-2.4899,0,-2.4543,-2.4622,-2.4699,-2.4717,-2.4749,-2.4786,-2.48,-2.4826,-2.4856,-2.4893,-2.4912,-2.4956,-2.498,-2.5015,-2.501,-2.4969,-2.51,-2.5042,-2.5103,-2.5104,-2.5134,-2.5133,-2.5312,-2.5148,-2.5147,-2.5147,-2.5147,0,-2.4681,-2.475,-2.4748,-2.4795,-2.4872,-2.4861,-2.4937,-2.4948,-2.4971,-2.502,-2.4994,-2.5041,-2.5031,-2.5077,-2.5073,-2.5147,-2.5158,-2.5161,-2.5159,-2.5164,-2.5164,-2.5183,-2.5175,-2.5152,-2.5151,-2.515,-2.5149,0,-2.4815,-2.4816,-2.4898,-2.4922,-2.4929,-2.4985,-2.5005,-2.505,-2.5053,-2.5116,-2.5129,-2.5135,-2.5188,-2.5186,-2.5245,-2.5243,-2.5335,-2.5322,-2.5325,-2.5324,-2.5386,-2.5381,-2.5584,-2.5611,-2.5428,-2.5429,-2.5431,0,-2.4904,-2.4957,-2.4987,-2.5018,-2.5036,-2.5086,-2.5116,-2.5107,-2.5139,-2.5176,-2.5217,-2.5267,-2.5307,-2.5393,-2.5402,-2.5447,-2.5437,-2.5505,-2.5444,-2.5448,-2.5441,-2.5438,-2.5444,-2.5518,-2.552,-2.5522,-2.5523,0,-2.5063,-2.5061,-2.5106,-2.5151,-2.5188,-2.5222,-2.5254,-2.5281,-2.5275,-2.5312,-2.5366,-2.5397,-2.5458,-2.5509,-2.5553,-2.5567,-2.5545,-2.5542,-2.5559,-2.5566,-2.5566,-2.5569,-2.536,-2.5538,-2.5537,-2.5535,-2.5535,-2.5534,-2.5179,-2.5225,-2.5253,-2.5304,-2.5327,-2.5357,-2.5401,-2.541,-2.5455,-2.5505,-2.5496,-2.5557,-2.5584,-2.564,-2.5659,-2.5706,-2.5682,-2.5706,-2.5712,-2.5719,-2.5727,-2.5557,-2.5713,-2.5713,-2.5713,-2.5712,-2.5712,0,-2.5338,-2.5355,-2.5401,-2.5447,-2.5487,-2.5462,-2.5496,-2.5531,-2.5585,-2.5612,-2.5652,-2.5715,-2.5763,-2.5776,-2.5823,-2.5859,-2.585,-2.5871,-2.587,-2.5874,-2.5745,-2.5727,-2.5878,-2.5878,-2.5878,-2.5878,-2.5878,-2.5878,-2.5426,-2.5503,-2.5504,-2.5592,-2.5607,-2.5667,-2.5689,-2.5717,-2.5739,-2.581,-2.5851,-2.5859,-2.5881,-2.5929,-2.5973,-2.5975,-2.5994,-2.6021,-2.602,-2.5899,-2.5883,-2.5867,-2.585,-2.6025,-2.6025,-2.6145,-2.6146,-2.6147]}]]